Skip Page Navigation
NASA JPL Caltech
NASA Logo - Jet Propulsion Laboratory + View the NASA Portal
+ Center for Near-Earth Object Studies
JPL Home Earth Solar System Stars & Galaxies Technology
JPL Solar System Dynamics
BODIES ORBITS EPHEMERIDES TOOLS PHYSICAL DATA DISCOVERY FAQ SITE MAP
JPL Small-Body Database Browser
Search: [ help ]  
34050 (2000 OU36)
Classification: Main-belt Asteroid          SPK-ID: 2034050
Ephemeris | Orbit Diagram | Orbital Elements | Mission Design | Physical Parameters | Discovery Circumstances ]

[ show orbit diagram ]
Orbital Elements at Epoch 2459396.5 (2021-Jul-01.0) TDB
Reference: JPL 30 (heliocentric ecliptic J2000)
 Element Value Uncertainty (1-sigma)   Units 
e .1515297681852161 4.2719e-08  
a 2.733500336346541 1.5571e-08 au
q 2.319293664045739 1.2015e-07 au
i 11.65436989252312 4.231e-06 deg
node 277.2356400840411 2.395e-05 deg
peri 113.7392591575681 2.902e-05 deg
M 167.0448935081956 1.7724e-05 deg
tp 2458630.536936287440
(2019-May-27.03693629)
7.8215e-05 TDB
period 1650.734105936574
4.52
1.4105e-05
3.862e-08
d
yr
n .2180847894917319 1.8634e-09 deg/d
Q 3.147707008647343 1.793e-08 au
  Orbit Determination Parameters
   # obs. used (total)      1310  
   data-arc span      25895 days (70.90 yr)  
   first obs. used      1950-06-21  
   last obs. used      2021-05-14  
   planetary ephem.      DE441  
   SB-pert. ephem.      SB441-N16  
   condition code      0  
   norm. resid. RMS      .52272  
   source      ORB  
   producer      Otto Matic  
   solution date      2021-Jul-08 20:11:58  

Additional Information
 Earth MOID = 1.3542 au 
 Jupiter MOID = 2.34085 au 
 T_jup = 3.307 
[ show covariance matrix ]

Ephemeris | Orbit Diagram | Orbital Elements | Mission Design | Physical Parameters | Discovery Circumstances ]

Physical Parameter Table
Parameter Symbol Value Units Sigma Reference Notes
absolute magnitude H 14.25   n/a E2021B10  

34050 (2000 OU36)          Discovered 2000-Jul-30 by LINEAR at Socorro
Reference: 20020128/Numbers.arcLast Updated: 2004-04-19
Ephemeris | Orbit Diagram | Orbital Elements | Mission Design | Physical Parameters | Discovery Circumstances ]
ABOUT SSD CREDITS/AWARDS PRIVACY/COPYRIGHT GLOSSARY LINKS
FirstGov 2021-Jul-31 08:15 UT
(server date/time)  
NASA Home Page
Site Manager:   Ryan S. Park
Webmaster  Alan B. Chamberlin